Hourly Data Report for September 14, 2017

All times are specified in Local Standard Time (LST). Add 1 hour to adjust for Daylight Saving Time where and when it is observed.

MONCTON INTL A
NEW BRUNSWICK

46°06'44.000" N
64°40'43.000" W
70.70 m
8103201
71705
YQM

Download Data

Hourly Data (September 2017)
Hourly Data Report for September 14, 2017
Temp Definition
°C
Dew Point Temp Definition
°C
Rel Hum Definition
%
Wind Dir Definition
10's deg

Wind Spd Definition
km/h
Visibility Definition
km
Stn Press Definition
kPa
Hmdx Definition


Wind Chill Definition


Weather Definition


TIME
00:00 Legend Double Dagger 16.0 12.3 78 22 14 24.1 99.83     LegendNANA
01:00 Legend Double Dagger 15.3 12.2 82 23 14 24.1 99.84     LegendNANA
02:00 Legend Double Dagger 14.9 12.1 83 22 16 24.1 99.85     Clear
03:00 Legend Double Dagger 14.4 11.9 85 22 15 24.1 99.85     LegendNANA
04:00 Legend Double Dagger 14.1 11.8 86 23 12 24.1 99.86     LegendNANA
05:00 Legend Double Dagger 13.9 11.9 88 23 15 24.1 99.89     Clear
06:00 Legend Double Dagger 13.6 11.8 88 23 13 24.1 99.93     LegendNANA
07:00 Legend Double Dagger 14.7 12.4 86 23 13 24.1 100.00     LegendNANA
08:00 Legend Double Dagger 17.0 13.3 79 22 17 24.1 100.02     Mainly Clear
09:00 Legend Double Dagger 19.9 14.4 70 23 16 24.1 100.05     LegendNANA
10:00 Legend Double Dagger 22.4 14.9 62 22 18 24.1 100.06 26   LegendNANA
11:00 Legend Double Dagger 24.2 15.9 59 22 13 24.1 100.03 29   Clear
12:00 Legend Double Dagger 25.3 15.5 54 25 16 24.1 100.00 30   LegendNANA
13:00 Legend Double Dagger 26.6 14.9 48 22 22 24.1 99.98 31   LegendNANA
14:00 Legend Double Dagger 27.4 14.6 45 22 27 24.1 99.95 31   Mainly Clear
15:00 Legend Double Dagger 27.8 14.4 43 22 16 24.1 99.94 31   LegendNANA
16:00 Legend Double Dagger 27.3 15.6 48 23 16 24.1 99.95 32   LegendNANA
17:00 Legend Double Dagger 26.3 15.7 52 22 15 24.1 100.00 31   Mostly Cloudy
18:00 Legend Double Dagger 24.4 16.0 59 23 13 24.1 100.06 29   LegendNANA
19:00 Legend Double Dagger 22.1 15.6 66 23 12 24.1 100.14 26   LegendNANA
20:00 Legend Double Dagger 20.3 15.9 76 21 14 24.1 100.23 25   Clear
21:00 Legend Double Dagger 18.9 15.7 81 21 10 24.1 100.29     LegendNANA
22:00 Legend Double Dagger 18.8 15.1 79 26 10 24.1 100.35     LegendNANA
23:00 Legend Double Dagger 18.1 15.0 82 34 5 24.1 100.43     Clear

Notes on Data Quality.

Legend

  • E = Estimated
  • M = Missing
  • NA = Not Available
  • ‡ = Partner data that is not subject to review by the National Climate Archives
Date modified: